Simultaneous Nadir Overpasses (SNOs) Predictions

Prediction of SNOs between LANDSAT-8 and NPP Satellite Orbit:

Table of predicted SNOs for the next 14.0 days since TLE Epoch: 1/30/2016
Index Date (LANDSAT-8) Time (LANDSAT-8) Lat,Lon (LANDSAT-8) SZA (LANDSAT-8 ) Date (NPP) Time (NPP) Lat,Lon (NPP) SZA (NPP ) Distance(km) Time Diff (sec)
1 01/30/2016 21:35:59 70.31,-147.28 87.95 01/30/2016 21:35:00 70.31,-147.27 87.96 0.34 59
2 01/30/2016 22:25:29 -70.20, 20.19 92.17 01/30/2016 22:25:41 -70.19, 20.24 92.18 1.93 12
3 01/30/2016 23:15:07 69.49,-173.15 87.15 01/30/2016 23:16:15 69.53,-171.47 87.12 65.70 68
4 02/02/2016 13:52:28 70.27, -31.46 87.16 02/02/2016 13:51:52 70.29, -31.47 87.19 2.56 36
5 02/02/2016 14:41:58 -70.16, 136.02 92.96 02/02/2016 14:42:33 -70.17, 136.05 92.96 1.51 35
6 02/05/2016 05:19:19 -70.88, -82.32 93.05 02/05/2016 05:18:09 -70.93, -84.02 92.92 62.19 70
7 02/05/2016 06:08:56 70.22, 84.36 86.33 02/05/2016 06:08:42 70.23, 84.42 86.33 2.29 14
8 02/05/2016 06:58:25 -70.17,-108.09 93.74 02/05/2016 06:59:24 -70.15,-108.15 93.76 3.25 59
9 02/07/2016 21:35:57 -70.34, 32.75 94.38 02/07/2016 21:34:50 -70.34, 32.72 94.36 1.42 67
10 02/07/2016 22:25:24 70.22,-159.76 85.51 02/07/2016 22:25:34 70.21,-159.79 85.50 1.51 10
11 02/07/2016 23:14:59 -69.85, 7.34 94.86 02/07/2016 23:16:10 -69.82, 8.13 94.93 30.64 71
12 02/10/2016 13:52:26 -70.28, 148.55 95.29 02/10/2016 13:51:41 -70.27, 148.60 95.29 1.92 45
13 02/10/2016 14:41:53 70.16, -43.97
